Location: Unspecified
(0.0000°N, 0.0000°E)
Time: 09:23:13
(UTC+00:00)

CHEOPS - Visible Passes

Search period start: 09 November 2025 00:00
Search period end: 19 November 2025 00:00
Orbit: 679 x 696 km, 98.1° (Epoch: 08 November)

Date Brightness Start Highest point End Pass type
(mag) Time Alt. Az. Time Alt. Az. Time Alt. Az.
10 Nov ? 18:31:06 10° NNW 18:35:17 33° WNW 18:39:30 10° SW visible
11 Nov ? 05:13:45 10° SE 05:17:15 21° ENE 05:20:43 10° NNE visible
11 Nov ? 19:12:49 10° WNW 19:13:18 10° WNW 19:13:47 10° W visible
12 Nov ? 18:09:32 10° N 18:14:10 65° WNW 18:18:50 10° SSW visible
13 Nov ? 04:55:02 10° E 04:56:08 11° ENE 04:57:13 10° ENE visible
13 Nov ? 18:48:48 10° NNW 18:52:12 20° WNW 18:55:38 10° SW visible
15 Nov ? 18:26:45 10° N 18:31:04 38° WNW 18:35:26 10° SW visible
16 Nov ? 05:09:49 10° ESE 05:13:01 19° ENE 05:16:12 10° NE visible
16 Nov ? 19:07:23 10° NW 19:09:05 12° WNW 19:10:48 10° W visible
17 Nov ? 18:05:16 10° N 18:09:57 75° WNW 18:14:39 10° SSW visible
18 Nov ? 18:44:18 10° NNW 18:47:58 23° WNW 18:51:39 10° SW visible
